Tracking 35331 objects as of 15-Sep-2026
HD Live streaming from Space Station
objects crossing your sky now

STARLINK-11510

Track STARLINK-11510 now!
10-day predictions
STARLINK-11510 is classified as:


NORAD ID: 62516
Int'l Code: 2025-004F
Launch date: January 8, 2025
Source: United States (US)
Launch site: AIR FORCE EASTERN TEST RANGE (AFETR)
Your satellite tracking list
Your tracking list is empty




NASA's NSSDC Master Catalog

Two Line Element Set (TLE):
1 62516U 25004F   26256.69336926  .00147628  00000-0  11304-2 0  9995
2 62516  42.9997  17.7719 0003094 264.9859  95.0656 15.70906121 96775
Source of the keplerian elements: AFSPC